Simultaneous Nadir Overpasses (SNOs) Predictions

Prediction of SNOs between GOES-16 and NOAA-19 Satellite Orbit:

Table of predicted SNOs for the next 14.0 days since TLE Epoch: 9/24/2022
Index Date Time (GOES-16) GOES-16 Lat,Lon NOAA-19 Lat,Lon Distance(km) Time Diff (sec)
1 09/24/2022 13:07:10 -0.04, -75.20 0.33, -76.70 171.17 80
2 09/25/2022 12:57:57 -0.04, -75.21 -0.35, -73.80 160.07 80
3 09/26/2022 12:46:05 -0.04, -75.21 -1.03, -70.91 491.41 80
4 09/28/2022 01:15:47 0.04, -75.21 -0.74, -78.67 394.05 80
5 09/29/2022 01:03:54 0.04, -75.22 -0.11, -75.76 62.58 80
6 09/30/2022 00:54:41 0.04, -75.22 0.57, -72.87 269.02 80
7 10/02/2022 13:12:32 -0.04, -75.26 0.55, -77.73 282.41 80
8 10/03/2022 13:03:20 -0.03, -75.27 -0.15, -74.84 49.28 80
9 10/04/2022 12:51:26 -0.03, -75.28 -0.78, -71.93 381.07 80
10 10/07/2022 01:09:16 0.03, -75.29 -0.32, -76.79 171.42 80
11 10/08/2022 01:00:04 0.03, -75.31 0.38, -73.90 161.21 80
